Regional Weather Roundup
Issued by NWS

Home | Current Version | Previous Version | Text Only | Print | Product List | Glossary On
Versions: 1 2 3 4 5 6 7 8 9 10 11 12 13 14 15 16 17 18 19 20 21 22 23 24 25 26 27 28 29 30 31 32 33 34 35 36 37 38 39 40 41 42 43 44 45 46 47 48 49 50
000
ASUS44 KBMX 300010
RWRAL

ALABAMA REGIONAL WEATHER ROUNDUP
NATIONAL WEATHER SERVICE BIRMINGHAM AL
700 PM CDT FRI APR 29 2016

NOTE: "FAIR" INDICATES FEW OR NO CLOUDS BELOW 12,000 FEET
WITH NO SIGNIFICANT WEATHER AND/OR OBSTRUCTIONS TO VISIBILITY.

THE REMARK "TC" DENOTES TEMPERATURE IN DEGREES CELSIUS.

ALZ001>011-014-016>018-020-300100-
NORTH ALABAMA

CITY           SKY/WX    TMP DP  RH WIND       PRES   REMARKS
MUSCLE SHOALS  NOT AVBL
HUNTSVILLE     TSTM      64  63  96 W3        30.05R FOG
6HR MIN TEMP:  64; 6HR MAX TEMP:  83; 6HR PCP:  0.23;

DECATUR        TSTM      63  60  90 CALM      30.04F FOG
6HR MIN TEMP:  63; 6HR MAX TEMP:  82; 6HR PCP:  0.31;

HALEYVILLE     TSTM      61  60  97 E8        30.02F
6HR MIN TEMP:  61; 6HR MAX TEMP:  79; 6HR PCP:  0.94;

GADSDEN        CLOUDY    74  58  57 N8        29.97R
6HR MIN TEMP:  74; 6HR MAX TEMP:  86;

$$

ALZ012-013-022-023-030>036-040>044-300100-
WEST CENTRAL ALABAMA

CITY           SKY/WX    TMP DP  RH WIND       PRES   REMARKS
TUSCALOOSA     TSTM      65  64  97 NE21      30.00R FOG
6HR MIN TEMP:  65; 6HR MAX TEMP:  87; 6HR PCP:  0.26;

$$

ALZ015-024>027-033>036-040>044-300100-
CENTRAL ALABAMA

CITY           SKY/WX    TMP DP  RH WIND       PRES   REMARKS
BIRMINGHAM     TSTM      65  63  93 N21G35    30.04R FOG
6HR MIN TEMP:  65; 6HR MAX TEMP:  86; 6HR PCP:  0.60;

MONTGOMERY     CLOUDY    84  74  71 CALM      29.90S HX  91
6HR MIN TEMP:  84; 6HR MAX TEMP:  89;

SHELBY CO ARPT TSTM      66  62  87 N15G35    29.99R FOG
6HR MIN TEMP:  71; 6HR MAX TEMP:  87;

MAXWELL AFB    CLOUDY    82  74  76 W1        29.90R
6HR MIN TEMP:  82; 6HR MAX TEMP:  88;

GREENVILLE     MOCLDY    82  67  60 SW7       29.90R
6HR MIN TEMP:  81; 6HR MAX TEMP:  87;

$$

ALZ019-021-028-029-037-038-045>048-300100-
EAST CENTRAL ALABAMA

CITY           SKY/WX    TMP DP  RH WIND       PRES   REMARKS
ANNISTON       CLOUDY    77  62  59 CALM      29.95R
6HR MIN TEMP:  75; 6HR MAX TEMP:  87;

ALEXANDER CITY CLOUDY    78  74  88 CALM      29.95R
6HR MIN TEMP:  78; 6HR MAX TEMP:  88;

AUBURN         MOCLDY    79  66  64 MISG      29.95F
6HR MIN TEMP:  79; 6HR MAX TEMP:  85;

$$

ALZ051>064-300100-
SOUTHWEST ALABAMA

CITY           SKY/WX    TMP DP  RH WIND       PRES   REMARKS
MOBILE         CLOUDY    78  71  79 SE9       29.90F
6HR MIN TEMP:  78; 6HR MAX TEMP:  86;

BROOKLEY FIELD CLOUDY    77  74  90 SE8       29.90F
6HR MIN TEMP:  77; 6HR MAX TEMP:  82;

EVERGREEN      CLOUDY    80  61  52 SW6       29.92R
6HR MIN TEMP:  80; 6HR MAX TEMP:  89;

$$

ALZ049-050-065>069-300100-
SOUTHEAST ALABAMA

CITY           SKY/WX    TMP DP  RH WIND       PRES   REMARKS
DOTHAN         CLEAR     84  65  52 SW5       29.95R
6HR MIN TEMP:  84; 6HR MAX TEMP:  89;

OZARK          PTCLDY    83  70  63 S6        29.91R
6HR MIN TEMP:  83; 6HR MAX TEMP:  89;

TROY           PTCLDY    80  74  81 CALM      29.92R
6HR MIN TEMP:  80; 6HR MAX TEMP:  89;

EUFAULA        FAIR      79  70  74 CALM      29.90S
6HR MIN TEMP:  79; 6HR MAX TEMP:  91;

$$



USA.gov is the U.S. government's official web portal to all federal, state and local government web resources and services.